Location: Pradons
(44.4746°N, 4.3578°E)
Time: 14:20:02
(UTC+00:00)

Resurs 01 Rocket - Pass Details

Date: 09 April 2020
Orbit: 635 x 643 km, 98.0° (Epoch: 26 May)

Event Time Altitude Azimuth Distance (km) Brightness Sun altitude
Exits shadow 20:55:16 25° 225° (SW) 1,270 3.1 -25.2°
Maximum altitude 20:56:49 33° 263° (W) 1,083 3.1 -25.4°
Drops below altitude 10° 21:00:49 10° 328° (NNW) 2,034 5.2 -25.9°
Sets 21:03:14 0° 338° (NNW) 2,950 6.1 -26.3°
